User: anonymous   Login
Location: Unspecified
(0.0000°N, 0.0000°E)
Time: 21:07:28
(UTC+00:00)
Language:

TBA - TO BE ASSIGNED - Orbit

View from above orbital plane
View from above orbital plane
View from above satellite
View from above satellite

Ground track
Ground track

The orbit is defined by the following mean orbital elements,

1 68777U          26145.58335647 +.00000000 +00000-0 -26884-1 0 00007
2 68777  97.2849 182.4381 0001616  76.0289  59.9516 15.58974974    03
Epoch (UTC): 25 May 2026 14:00:01
Eccentricity: 0.0001616
inclination: 97.2849°
perigee height: 390 km
apogee height: 392 km
right ascension of ascending node: 182.4381°
argument of perigee: 76.0289°
revolutions per day: 15.58974974
mean anomaly at epoch: 59.9516°

The dashed part of the orbit path shows where the satellite is in the earth's shadow,  

DLR